GW0139 Weather Reports


time (UTC)temp
F
wind
direction
speed
knots
gust
knots
rain 1hr
in
rain 24hr
in
rain mn
in
humidity
%
barometer
mb
20260505124932 75 189 2.6 2.6 0.00 0.00 0.00 94 1007.5
20260505124429 75 195 1.7 2.6 0.00 0.00 0.00 95 1007.3
20260505123925 74 198 2.6 4.3 0.00 0.00 0.00 95 1007.5
20260505123422 74 183 1.7 2.6 0.00 0.00 0.00 95 1007.4
20260505122917 75 175 0.9 1.7 0.00 0.00 0.00 94 1007.4
20260505122415 75 159 2.6 4.3 0.00 0.00 0.00 94 1007.7
20260505121912 74 187 2.6 2.6 0.00 0.00 0.00 94 1007.8
20260505121409 74 172 1.7 1.7 0.00 0.00 0.00 94 1007.8
20260505120905 74 177 0.9 1.7 0.00 0.00 0.00 94 1007.5
20260505120402 74 183 0.9 0.9 0.00 0.00 0.00 95 1007.5
20260505115900 74 162 1.7 2.6 0.00 0.00 0.00 95 1007.5
20260505115357 74 186 3.5 4.3 0.00 0.00 0.00 95 1007.4
20260505114855 74 140 2.6 4.3 0.00 0.00 0.00 95 1007.4
20260505114351 73 206 1.7 1.7 0.00 0.00 0.00 95 1007.1
20260505113848 73 176 2.6 2.6 0.00 0.00 0.00 95 1007.4
20260505113344 73 192 2.6 2.6 0.00 0.00 0.00 95 1007.5
20260505112840 73 181 1.7 2.6 0.00 0.00 0.00 95 1007.5
20260505112338 73 186 0.9 0.9 0.00 0.00 0.00 95 1007.6
20260505111833 73 206 0.0 0.0 0.00 0.00 0.00 95 1007.7
20260505111329 73 182 0.9 0.9 0.00 0.00 0.00 95 1007.7
20260505110825 73 202 0.9 0.9 0.00 0.00 0.00 95 1007.5
20260505110323 73 202 0.9 0.9 0.00 0.00 0.00 95 1007.4
20260505101757 73 158 2.6 5.2 0.00 0.00 0.00 94 1007.3
20260505101253 73 199 0.0 0.9 0.00 0.00 0.00 94 1007.5
20260505100749 73 185 0.9 1.7 0.00 0.00 0.00 94 1007.5
20260505100246 73 193 0.9 0.9 0.00 0.00 0.00 94 1007.5
20260505095741 73 193 1.7 1.7 0.00 0.00 0.00 94 1007.4
20260505095240 73 203 1.7 1.7 0.00 0.00 0.00 95 1007.6
20260505094735 73 176 0.9 1.7 0.00 0.00 0.00 94 1007.5
20260505094231 73 166 1.7 1.7 0.00 0.00 0.00 95 1007.5
20260505093728 73 253 0.9 0.9 0.00 0.00 0.00 95 1007.4
20260505093225 73 190 0.9 0.9 0.00 0.00 0.00 95 1007.6
20260505092722 73 196 0.9 0.9 0.00 0.00 0.00 95 1007.7
20260505092221 73 195 0.9 0.9 0.00 0.00 0.00 94 1007.7
20260505091718 73 196 0.9 0.9 0.00 0.00 0.00 94 1007.7
20260505091216 73 213 0.0 0.9 0.00 0.00 0.00 94 1007.6
20260505090713 73 199 0.9 0.9 0.00 0.00 0.00 94 1007.5
20260505090211 73 182 0.9 0.9 0.00 0.00 0.00 94 1007.4
20260505085708 73 208 0.0 0.9 0.00 0.00 0.00 94 1007.4
20260505085206 73 185 1.7 2.6 0.00 0.00 0.00 94 1007.4
20260505084703 73 157 2.6 5.2 0.00 0.00 0.00 94 1007.4
20260505084202 73 210 3.5 5.2 0.00 0.00 0.00 94 1007.5
20260505083659 73 162 0.9 1.7 0.00 0.00 0.00 93 1007.5
20260505083155 73 169 0.9 0.9 0.00 0.00 0.00 93 1007.6
20260505082651 73 189 2.6 4.3 0.00 0.00 0.00 93 1007.7
20260505082148 73 209 1.7 2.6 0.00 0.00 0.00 93 1007.7
20260505081644 73 189 0.9 1.7 0.00 0.00 0.00 92 1007.7
20260505081142 74 188 1.7 1.7 0.00 0.00 0.00 92 1007.9
20260505080639 73 198 0.9 0.9 0.00 0.00 0.00 92 1007.9
20260505080135 73 196 1.7 2.6 0.00 0.00 0.00 92 1007.9
20260505075631 73 187 0.9 1.7 0.00 0.00 0.00 92 1008.0
20260505075128 73 180 0.9 1.7 0.00 0.00 0.00 92 1007.8
20260505074625 73 184 0.9 0.9 0.00 0.00 0.00 92 1007.9
20260505074122 73 186 1.7 2.6 0.00 0.00 0.00 92 1008.1
20260505073620 73 210 0.9 0.9 0.00 0.00 0.00 92 1008.0
20260505073118 73 191 2.6 2.6 0.00 0.00 0.00 92 1008.0
20260505072613 73 177 0.9 0.9 0.00 0.00 0.00 92 1008.1
20260505072110 73 195 1.7 1.7 0.00 0.00 0.00 92 1008.2
20260505071605 73 179 0.9 1.7 0.00 0.00 0.00 91 1008.2
20260505071103 73 149 1.7 1.7 0.00 0.00 0.00 91 1008.2
20260505070600 73 181 4.3 6.1 0.00 0.00 0.00 91 1008.4
20260505070056 73 175 1.7 2.6 0.00 0.00 0.00 91 1008.5
20260505065552 73 121 0.9 1.7 0.00 0.00 0.00 91 1008.8
20260505065049 73 198 0.9 1.7 0.00 0.00 0.00 90 1008.7
20260505064546 73 88 1.7 1.7 0.00 0.00 0.00 90 1008.6
20260505064045 73 192 0.9 1.7 0.00 0.00 0.00 90 1008.8
20260505063542 73 186 1.7 1.7 0.00 0.00 0.00 90 1009.0
20260505063037 73 137 1.7 2.6 0.00 0.00 0.00 90 1009.2
20260505062534 73 235 1.7 1.7 0.00 0.00 0.00 90 1008.9
20260505062031 73 189 2.6 2.6 0.00 0.00 0.00 91 1009.0
20260505061529 73 197 1.7 4.3 0.00 0.00 0.00 91 1009.1
20260505061027 73 183 1.7 1.7 0.00 0.00 0.00 91 1009.1
20260505060524 73 181 0.9 1.7 0.00 0.00 0.00 91 1009.1
20260505060020 73 184 1.7 1.7 0.00 0.00 0.00 91 1009.1
20260505055516 73 185 0.0 0.9 0.00 0.00 0.00 91 1009.1
20260505055013 72 259 0.9 1.7 0.00 0.00 0.00 91 1009.2
20260505054510 72 168 0.9 0.9 0.00 0.00 0.00 91 1009.1
20260505054008 72 195 1.7 1.7 0.00 0.00 0.00 91 1009.1
20260505053505 72 193 0.9 0.9 0.00 0.00 0.00 91 1009.1
20260505053001 72 169 1.7 1.7 0.00 0.00 0.00 91 1009.2
20260505052459 72 187 1.7 1.7 0.00 0.00 0.00 91 1009.2
20260505051956 72 182 1.7 1.7 0.00 0.00 0.00 91 1009.2
20260505051452 72 192 2.6 2.6 0.00 0.00 0.00 90 1009.2
20260505050951 72 183 1.7 2.6 0.00 0.00 0.00 90 1009.0
20260505050449 72 215 1.7 1.7 0.00 0.00 0.00 90 1009.3
20260505041416 72 156 2.6 4.3 0.00 0.00 0.00 89 1009.4
20260505040913 72 167 1.7 1.7 0.00 0.00 0.00 89 1009.7
20260505040411 72 188 1.7 2.6 0.00 0.00 0.00 89 1009.7
20260505035907 72 171 0.9 0.9 0.00 0.00 0.00 89 1009.8
20260505035403 72 166 2.6 2.6 0.00 0.00 0.00 89 1009.8
20260505034901 72 172 0.9 1.7 0.00 0.00 0.00 89 1009.9
20260505034357 72 171 0.9 1.7 0.00 0.00 0.00 90 1010.0
20260505033855 72 179 1.7 1.7 0.00 0.00 0.00 90 1009.8
20260505033351 71 160 1.7 2.6 0.00 0.00 0.00 90 1009.8
20260505032849 71 167 1.7 2.6 0.00 0.00 0.00 90 1009.8
20260505032346 71 167 1.7 1.7 0.00 0.00 0.00 90 1009.8
20260505031842 71 166 0.9 1.7 0.00 0.00 0.00 89 1009.9
20260505031339 71 177 0.9 0.9 0.00 0.00 0.00 89 1009.9
20260505030837 71 182 1.7 1.7 0.00 0.00 0.00 89 1009.8
20260505030332 71 186 2.6 2.6 0.00 0.00 0.00 89 1009.8
20260505025828 71 162 1.7 2.6 0.00 0.00 0.00 89 1009.9
20260505025326 71 175 1.7 1.7 0.00 0.00 0.00 89 1009.8
20260505024824 71 164 0.9 1.7 0.00 0.00 0.00 89 1009.9
20260505024322 71 177 0.9 1.7 0.00 0.00 0.00 88 1010.0
20260505023818 71 160 2.6 5.2 0.00 0.00 0.00 88 1009.9
20260505023315 71 166 1.7 1.7 0.00 0.00 0.00 88 1009.9
20260505022813 71 170 0.9 1.7 0.00 0.00 0.00 88 1009.8
20260505022310 71 176 0.9 0.9 0.00 0.00 0.00 88 1009.7
20260505021807 71 194 0.9 0.9 0.00 0.00 0.00 87 1009.9
20260505021303 71 162 2.6 2.6 0.00 0.00 0.00 87 1009.9
20260505020759 71 181 0.0 0.9 0.00 0.00 0.00 87 1009.8
20260505020254 71 141 0.9 1.7 0.00 0.00 0.00 87 1009.6
20260505015752 71 176 0.0 0.9 0.00 0.00 0.00 87 1009.6
20260505015249 72 160 0.9 1.7 0.00 0.00 0.00 87 1009.5
20260505014746 72 166 0.9 0.9 0.00 0.00 0.00 86 1009.6
20260505014243 72 179 0.9 1.7 0.00 0.00 0.00 86 1009.5
20260505013739 72 158 1.7 1.7 0.00 0.00 0.00 86 1009.5
20260505013237 72 176 1.7 1.7 0.00 0.00 0.00 86 1009.9
20260505012735 72 167 1.7 2.6 0.00 0.00 0.00 86 1009.8
20260505012232 72 183 0.9 1.7 0.00 0.00 0.00 85 1009.7
20260505011728 72 171 0.9 0.9 0.00 0.00 0.00 85 1009.4
20260505011225 72 162 1.7 1.7 0.00 0.00 0.00 85 1009.5
20260505010721 73 192 0.0 0.0 0.00 0.00 0.00 84 1009.7
20260505010217 73 157 1.7 1.7 0.00 0.00 0.00 84 1009.6
20260505005714 73 198 0.9 1.7 0.00 0.00 0.00 83 1009.6
20260505005211 73 164 1.7 1.7 0.00 0.00 0.00 82 1009.5
20260505004708 73 187 2.6 2.6 0.00 0.00 0.00 82 1009.4
20260505004204 73 184 4.3 6.1 0.00 0.00 0.00 82 1009.3
20260505003702 73 193 3.5 4.3 0.00 0.00 0.00 82 1009.3
20260505003159 74 160 2.6 4.3 0.00 0.00 0.00 82 1009.3
20260505002655 74 159 2.6 4.3 0.00 0.00 0.00 82 1009.3
20260505002153 74 179 0.9 0.9 0.00 0.00 0.00 81 1009.5
20260505001650 74 176 2.6 2.6 0.00 0.00 0.00 81 1009.5
20260505001148 75 156 4.3 6.1 0.00 0.00 0.00 80 1009.6
20260505000644 75 147 4.3 5.2 0.00 0.00 0.00 79 1009.6
20260505000142 75 178 1.7 2.6 0.00 0.00 0.00 78 1009.7
20260504235638 75 170 2.6 4.3 0.00 0.00 0.00 78 1009.5
20260504235135 75 240 2.6 2.6 0.00 0.00 0.00 79 1009.3
20260504234632 75 153 4.3 5.2 0.00 0.00 0.00 79 1009.8
20260504234130 75 201 2.6 4.3 0.00 0.00 0.00 78 1009.8
20260504233625 75 220 0.9 0.9 0.00 0.00 0.00 77 1009.8
20260504233121 76 174 0.9 1.7 0.00 0.00 0.00 77 1009.7
20260504232619 76 192 1.7 1.7 0.00 0.00 0.00 77 1010.1
20260504232116 76 182 1.7 1.7 0.00 0.00 0.00 77 1010.0
20260504231613 76 183 1.7 2.6 0.00 0.00 0.00 77 1010.0
20260504231109 76 178 2.6 2.6 0.00 0.00 0.00 77 1010.0
20260504230605 76 170 2.6 4.3 0.00 0.00 0.00 77 1010.2
20260504230104 76 162 0.9 1.7 0.00 0.00 0.00 78 1010.0
20260504225601 76 83 1.7 2.6 0.00 0.00 0.00 78 1010.3
20260504225058 76 203 2.6 2.6 0.00 0.00 0.00 77 1010.1
20260504224554 76 137 2.6 2.6 0.00 0.00 0.00 76 1010.4
20260504224052 76 89 2.6 2.6 0.00 0.00 0.00 77 1010.3
20260504223549 76 196 2.6 2.6 0.00 0.00 0.00 77 1010.4
20260504223044 77 144 2.6 4.3 0.00 0.00 0.00 75 1010.5
20260504222541 76 141 2.6 4.3 0.00 0.00 0.00 75 1010.6
20260504222039 76 242 2.6 2.6 0.00 0.00 0.00 75 1010.7
20260504221536 77 169 0.9 1.7 0.00 0.00 0.00 76 1010.7
20260504221032 77 162 1.7 2.6 0.00 0.00 0.00 76 1010.8
20260504220529 76 183 4.3 5.2 0.00 0.00 0.00 76 1010.7
20260504220026 76 160 4.3 6.1 0.00 0.00 0.00 75 1010.7
20260504215522 76 241 1.7 2.6 0.00 0.00 0.00 76 1010.6
20260504215020 77 146 5.2 7.0 0.00 0.00 0.00 74 1010.8
20260504214516 77 99 2.6 2.6 0.00 0.00 0.00 74 1010.9
20260504214012 77 203 1.7 1.7 0.00 0.00 0.00 75 1011.1
20260504213509 77 182 2.6 2.6 0.00 0.00 0.00 75 1010.9
20260504213007 76 205 4.3 6.1 0.00 0.00 0.00 74 1011.1
20260504212502 76 190 2.6 2.6 0.00 0.00 0.00 75 1011.1
20260504212000 77 182 0.9 1.7 0.00 0.00 0.00 75 1011.1
20260504211456 77 178 2.6 5.2 0.00 0.00 0.00 74 1011.3
20260504210954 77 183 3.5 5.2 0.00 0.00 0.00 73 1011.3
20260504210450 78 189 1.7 1.7 0.00 0.00 0.00 73 1011.4
20260504205947 78 174 2.6 4.3 0.00 0.00 0.00 72 1011.4
20260504205444 78 221 3.5 4.3 0.00 0.00 0.00 73 1011.3
20260504204943 79 172 4.3 7.0 0.00 0.00 0.00 71 1011.6
20260504204441 77 148 2.6 2.6 0.00 0.00 0.00 73 1011.5
20260504203940 78 129 3.5 5.2 0.00 0.00 0.00 71 1011.7
20260504203437 77 164 2.6 4.3 0.00 0.00 0.00 72 1011.7
20260504202933 77 177 2.6 2.6 0.00 0.00 0.00 73 1011.7
20260504202430 78 159 4.3 6.1 0.00 0.00 0.00 72 1011.8
20260504201926 78 134 5.2 7.0 0.00 0.00 0.00 71 1011.8
20260504201424 78 173 3.5 4.3 0.00 0.00 0.00 72 1012.1
20260504200921 77 202 2.6 4.3 0.00 0.00 0.00 71 1011.9
20260504200418 77 184 1.7 1.7 0.00 0.00 0.00 72 1012.0
20260504195915 78 170 3.5 5.2 0.00 0.00 0.00 71 1012.0
20260504195410 78 199 2.6 2.6 0.00 0.00 0.00 71 1012.1
20260504194907 78 166 4.3 7.0 0.00 0.00 0.00 71 1012.2
20260504194403 78 214 2.6 5.2 0.00 0.00 0.00 70 1012.2
20260504193859 78 186 2.6 2.6 0.00 0.00 0.00 70 1012.5
20260504193356 78 159 2.6 4.3 0.00 0.00 0.00 70 1012.3
20260504192855 78 217 1.7 2.6 0.00 0.00 0.00 70 1012.3
20260504192352 79 215 3.5 4.3 0.00 0.00 0.00 69 1012.3
20260504191850 80 177 3.5 5.2 0.00 0.00 0.00 68 1012.3
20260504191348 79 135 0.9 1.7 0.00 0.00 0.00 68 1012.3
20260504190843 78 177 1.7 1.7 0.00 0.00 0.00 71 1012.5
20260504190339 78 186 2.6 2.6 0.00 0.00 0.00 70 1012.4
20260504185836 78 108 1.7 2.6 0.00 0.00 0.00 71 1012.5
20260504185333 79 174 1.7 2.6 0.00 0.00 0.00 69 1012.6
20260504184829 79 208 3.5 4.3 0.00 0.00 0.00 69 1012.6
20260504184325 80 145 2.6 4.3 0.00 0.00 0.00 69 1012.6
20260504183821 79 183 3.5 4.3 0.00 0.00 0.00 69 1012.6
20260504183319 78 171 3.5 4.3 0.00 0.00 0.00 70 1012.9
20260504182816 77 164 4.3 5.2 0.00 0.00 0.00 71 1012.8
20260504182314 79 178 1.7 2.6 0.00 0.00 0.00 70 1012.8
20260504181811 79 193 5.2 6.1 0.00 0.00 0.00 68 1012.9
20260504181308 78 222 2.6 2.6 0.00 0.00 0.00 68 1013.1
20260504180807 79 204 2.6 2.6 0.00 0.00 0.00 67 1013.0
20260504180305 79 207 1.7 2.6 0.00 0.00 0.00 69 1013.2
20260504175803 80 225 2.6 2.6 0.00 0.00 0.00 68 1013.2
20260504175259 78 117 1.7 1.7 0.00 0.00 0.00 67 1013.1
20260504174757 78 151 3.5 4.3 0.00 0.00 0.00 68 1013.1
20260504174255 78 175 3.5 6.1 0.00 0.00 0.00 67 1013.4
20260504173751 79 207 1.7 1.7 0.00 0.00 0.00 68 1013.6
20260504173248 79 210 2.6 4.3 0.00 0.00 0.00 65 1013.6
20260504172745 78 177 2.6 2.6 0.00 0.00 0.00 69 1013.6
20260504172241 78 187 3.5 4.3 0.00 0.00 0.00 69 1013.5
20260504171737 78 242 2.6 2.6 0.00 0.00 0.00 67 1013.7
20260504171235 78 177 3.5 5.2 0.00 0.00 0.00 68 1013.8
20260504170732 77 195 1.7 2.6 0.00 0.00 0.00 68 1014.0
20260504170229 77 124 4.3 6.1 0.00 0.00 0.00 68 1014.0
20260504160147 76 191 2.6 4.3 0.00 0.00 0.00 71 1014.4
20260504151115 76 190 3.5 5.2 0.00 0.00 0.00 71 1014.4
20260504150612 76 208 2.6 2.6 0.00 0.00 0.00 72 1014.6
20260504150109 75 210 0.9 0.9 0.00 0.00 0.00 73 1014.8
20260504141038 74 202 1.7 2.6 0.00 0.00 0.00 75 1014.1
20260504140534 73 185 2.6 4.3 0.00 0.00 0.00 78 1014.4